Location: Unspecified
(48.8656°N, 0.0000°E)
Time: 17:35:08
(UTC+00:00)

Vanguard 1 - Pass Details

Date: 19 June 2019
Orbit: 653 x 3830 km, 34.2° (Epoch: 18 October)

Event Time Altitude Azimuth Distance (km) Brightness Sun altitude
Rises 02:20:49 0° 214° (SW) 7,447 - -11.3°
Reaches altitude 10° 02:27:45 10° 203° (SSW) 5,952 - -10.7°
Exits shadow 02:28:09 11° 203° (SSW) 5,866 13.4 -10.6°
Maximum altitude 02:39:32 24° 160° (SSE) 3,831 12.8 -9.6°
Drops below altitude 10° 02:47:32 10° 112° (ESE) 3,928 13.4 -8.8°
Sets 02:50:52 0° 98° (E) 4,505 13.9 -8.4°
